SL-8 R/B, 6271

Orbit data source: Space-Track

SL-8 R/B, 6271 is space debris in LEO originally from a launch on Wed, 01 Nov 1972 UTC launched from the Plesetsk Missile And Space Complex (PKMTR). Debris objects in space refer to the collection of defunct objects orbiting the Earth. Examples of debris include non-operational satellites, rocket bodies, and fragments generated from explosions, collisions, or faulty payload assembly.

Loading next visibility...
Identifier
6271, 1972-087J
Orbit
LEO
Country
Flag of CISCIS
Related business
Manufacturer
Omsk Av. Zav.
Mission
Spacecraft
Bus & Motor
S3, Unknown motor
Mass
1,434 kg wet, 1,434 kg dry
Launch date (UTC)
1972-11-01 (54 years ago)
Launch vehicle
Unknown
Launch site
Plesetsk Missile And Space Complex (PKMTR)
Object type
Payload
Rocket body
Debris
Shape & HBR
Unknown
Radar Cross Section
Large (>1 m²)

Expand to show TLE details & history
Last TLE update: 2 days ago

TLE from 2 days ago
0 SL-8 R/B
1  6271U 72087J   26171.33786778 -.00000063  00000-0 -38605-3 0  9992
2  6271  74.0419  10.1435 0079723  88.2636  83.1564 12.34564563416993
Epoch: 2026-06-20T08:06Z
TLE epoch observation values (Epoch: 2026-06-20T08:06:31.776Z)
Latitude
7.31526°
Longitude
157.86369°
Altitude
1,524.426 km
Speed
7.107 km/s
True Right ascension
12h 32m 12s
True Declination
7° 16' 34"
Sunlit
Object was in daylight at epoch
Visualization orbit readout
Latitude
Unknown
Longitude
Unknown
Altitude
Unknown
Speed
Unknown
Apparent Right ascension
Unknown
Apparent Declination
Unknown
Sunlit
N/A
Visualization observer readout
Local Sidereal Time
23:08:34
Azimuth
Unknown
Elevation
Unknown
Doppler factor
Unknown
Orbital elements
Apogee altitude
1,590.608 km
Perigee altitude
1,464.554 km
Semi-major axis
7,905.718 km
Eccentricity
0.00797
Inclination
74.0419°
RAAN
10.1435°
Arg. of periapsis
88.2636°
True anomaly
84.06449°
Mean anomaly
83.1564°
Eccentric anomaly
83.61034°
Mean motion
3.08767 °/min
Orbital period
116.59 mins
BSTAR
-0.00038605
Loading maneuver chart data...
Computing Atmospheric mass density...
Loading historical data...
Loading historical data...
Loading historical data...
Loading historical data...
Loading historical data...
Loading historical data...
Loading historical data...

Documentation

Showing up to 5 results
|